Location: ???? ??????? ????
(31.2176°N, 31.6797°E)
Time: 18:52:55
(UTC+00:00)

Cosmos 1825 Rocket - Pass Details

Date: 29 October 2020
Orbit: 603 x 631 km, 82.5° (Epoch: 30 November)

Event Time Altitude Azimuth Distance (km) Brightness Sun altitude
Rises 15:34:58 0° 350° (N) 2,909 7.0 -6.7°
Reaches altitude 10° 15:37:14 10° 347° (NNW) 1,995 6.2 -7.1°
Maximum altitude 15:41:36 65° 266° (W) 681 4.1 -8.0°
Drops below altitude 10° 15:45:55 10° 185° (S) 1,965 6.3 -8.9°
Sets 15:48:07 0° 182° (S) 2,861 7.1 -9.4°
